TimeMDT,TemperatureF,Dew PointF,Humidity,Sea Level PressureIn,VisibilityMPH,Wind Direction,Wind SpeedMPH,Gust SpeedMPH,PrecipitationIn,Events,Conditions,WindDirDegrees,DateUTC
12:15 AM,41.0,26.6,57,30.05,10.0,WNW,8.1,-,N/A,,Clear,300,2014-04-21 06:15:00
12:35 AM,41.0,26.6,57,30.06,10.0,NW,10.4,-,N/A,,Clear,310,2014-04-21 06:35:00
12:55 AM,41.0,26.6,57,30.07,10.0,NW,11.5,-,N/A,,Clear,310,2014-04-21 06:55:00
1:15 AM,42.8,26.6,53,30.07,10.0,NW,12.7,-,N/A,,Clear,310,2014-04-21 07:15:00
1:35 AM,42.8,26.6,53,30.06,10.0,NNW,17.3,-,N/A,,Clear,330,2014-04-21 07:35:00
1:55 AM,42.8,26.6,53,30.07,10.0,NW,16.1,-,N/A,,Clear,320,2014-04-21 07:55:00
2:15 AM,41.0,26.6,57,30.08,10.0,WNW,8.1,15.0,N/A,,Clear,290,2014-04-21 08:15:00
2:35 AM,35.6,26.6,70,30.09,10.0,West,6.9,-,N/A,,Clear,280,2014-04-21 08:35:00
2:55 AM,35.6,26.6,70,30.09,10.0,WNW,8.1,-,N/A,,Clear,300,2014-04-21 08:55:00
3:15 AM,32.0,24.8,75,30.09,10.0,WNW,9.2,-,N/A,,Clear,290,2014-04-21 09:15:00
3:35 AM,32.0,24.8,75,30.09,10.0,WNW,9.2,-,N/A,,Clear,300,2014-04-21 09:35:00
3:55 AM,32.0,24.8,75,30.11,10.0,West,6.9,-,N/A,,Clear,280,2014-04-21 09:55:00
4:15 AM,32.0,24.8,75,30.11,10.0,WNW,6.9,-,N/A,,Clear,300,2014-04-21 10:15:00
4:35 AM,32.0,26.6,80,30.12,10.0,WNW,10.4,-,N/A,,Clear,300,2014-04-21 10:35:00
4:55 AM,35.6,28.4,75,30.12,10.0,NW,10.4,-,N/A,,Clear,310,2014-04-21 10:55:00
5:15 AM,35.6,28.4,75,30.12,10.0,NW,12.7,-,N/A,,Clear,320,2014-04-21 11:15:00
5:35 AM,33.8,28.4,81,30.13,10.0,WNW,10.4,-,N/A,,Clear,290,2014-04-21 11:35:00
5:55 AM,32.0,26.6,80,30.14,10.0,WNW,5.8,-,N/A,,Clear,300,2014-04-21 11:55:00
6:15 AM,32.0,26.6,80,30.15,10.0,WNW,5.8,-,N/A,,Clear,290,2014-04-21 12:15:00
6:35 AM,33.8,30.2,87,30.16,10.0,WNW,6.9,-,N/A,,Clear,290,2014-04-21 12:35:00
6:55 AM,35.6,30.2,81,30.18,10.0,WNW,6.9,-,N/A,,Clear,300,2014-04-21 12:55:00
7:15 AM,39.2,32.0,75,30.18,10.0,WNW,9.2,-,N/A,,Clear,300,2014-04-21 13:15:00
7:35 AM,41.0,32.0,70,30.20,10.0,NW,11.5,-,N/A,,Mostly Cloudy,310,2014-04-21 13:35:00
7:55 AM,41.0,33.8,76,30.21,10.0,NW,12.7,-,N/A,,Overcast,320,2014-04-21 13:55:00
8:15 AM,41.0,33.8,76,30.21,10.0,NNW,12.7,-,N/A,,Overcast,330,2014-04-21 14:15:00
8:35 AM,41.0,33.8,76,30.22,10.0,NW,12.7,-,N/A,,Overcast,310,2014-04-21 14:35:00
8:55 AM,42.8,33.8,70,30.22,10.0,NW,15.0,-,N/A,,Overcast,320,2014-04-21 14:55:00
9:15 AM,42.8,33.8,70,30.21,10.0,NNW,11.5,18.4,N/A,,Overcast,330,2014-04-21 15:15:00
9:35 AM,42.8,33.8,70,30.22,10.0,NNW,13.8,-,N/A,,Overcast,340,2014-04-21 15:35:00
9:55 AM,44.6,33.8,66,30.22,10.0,NW,10.4,-,N/A,,Overcast,310,2014-04-21 15:55:00
10:15 AM,46.4,33.8,62,30.22,10.0,North,11.5,-,N/A,,Mostly Cloudy,350,2014-04-21 16:15:00
10:35 AM,48.2,33.8,58,30.22,10.0,NNW,10.4,16.1,N/A,,Mostly Cloudy,340,2014-04-21 16:35:00
10:55 AM,50.0,33.8,54,30.22,10.0,NNW,9.2,16.1,N/A,,Partly Cloudy,340,2014-04-21 16:55:00
11:15 AM,50.0,33.8,54,30.21,10.0,NW,10.4,-,N/A,,Clear,320,2014-04-21 17:15:00
11:35 AM,51.8,33.8,50,30.20,10.0,WNW,9.2,-,N/A,,Clear,290,2014-04-21 17:35:00
11:55 AM,53.6,33.8,47,30.19,10.0,WNW,9.2,-,N/A,,Clear,300,2014-04-21 17:55:00
12:15 PM,55.4,33.8,44,30.19,10.0,NW,11.5,-,N/A,,Clear,320,2014-04-21 18:15:00
12:35 PM,57.2,32.0,38,30.18,10.0,NW,11.5,-,N/A,,Clear,320,2014-04-21 18:35:00
12:55 PM,57.2,32.0,38,30.17,10.0,NNW,11.5,-,N/A,,Clear,330,2014-04-21 18:55:00
1:15 PM,59.0,32.0,36,30.17,10.0,WNW,10.4,17.3,N/A,,Clear,300,2014-04-21 19:15:00
1:35 PM,59.0,32.0,36,30.16,10.0,WNW,12.7,-,N/A,,Clear,300,2014-04-21 19:35:00
1:55 PM,60.8,30.2,31,30.16,10.0,NNW,10.4,16.1,N/A,,Clear,340,2014-04-21 19:55:00
2:15 PM,60.8,30.2,31,30.15,10.0,Variable,6.9,17.3,N/A,,Clear,0,2014-04-21 20:15:00
2:35 PM,62.6,30.2,30,30.15,10.0,WNW,10.4,-,N/A,,Clear,300,2014-04-21 20:35:00
2:55 PM,62.6,28.4,27,30.15,10.0,NW,15.0,20.7,N/A,,Clear,310,2014-04-21 20:55:00
3:15 PM,64.4,28.4,26,30.14,10.0,WNW,11.5,23.0,N/A,,Clear,300,2014-04-21 21:15:00
3:35 PM,64.4,26.6,24,30.13,10.0,NNW,10.4,19.6,N/A,,Clear,330,2014-04-21 21:35:00
3:55 PM,62.6,28.4,27,30.13,10.0,NNE,9.2,18.4,N/A,,Clear,20,2014-04-21 21:55:00
4:15 PM,62.6,28.4,27,30.12,10.0,Variable,4.6,-,N/A,,Partly Cloudy,0,2014-04-21 22:15:00
4:35 PM,62.6,26.6,26,30.12,10.0,NW,9.2,-,N/A,,Scattered Clouds,320,2014-04-21 22:35:00
4:55 PM,64.4,28.4,26,30.12,10.0,North,6.9,18.4,N/A,,Clear,360,2014-04-21 22:55:00
5:15 PM,62.6,26.6,26,30.11,10.0,Variable,4.6,-,N/A,,Clear,0,2014-04-21 23:15:00
5:35 PM,64.4,26.6,24,30.10,10.0,NNE,12.7,-,N/A,,Clear,20,2014-04-21 23:35:00
5:55 PM,62.6,28.4,27,30.10,10.0,NNE,9.2,-,N/A,,Clear,30,2014-04-21 23:55:00
6:15 PM,60.8,28.4,29,30.10,10.0,NE,12.7,-,N/A,,Clear,40,2014-04-22 00:15:00
6:35 PM,59.0,30.2,34,30.10,10.0,NE,11.5,-,N/A,,Clear,40,2014-04-22 00:35:00
6:55 PM,57.2,30.2,36,30.09,10.0,NE,9.2,-,N/A,,Clear,50,2014-04-22 00:55:00
7:15 PM,55.4,30.2,38,30.09,10.0,NE,9.2,-,N/A,,Clear,50,2014-04-22 01:15:00
7:35 PM,51.8,30.2,44,30.10,10.0,East,6.9,-,N/A,,Clear,80,2014-04-22 01:35:00
7:55 PM,48.2,30.2,50,30.10,10.0,ENE,8.1,-,N/A,,Clear,70,2014-04-22 01:55:00
8:15 PM,44.6,30.2,57,30.10,10.0,ENE,4.6,-,N/A,,Clear,60,2014-04-22 02:15:00
8:35 PM,44.6,30.2,57,30.11,10.0,NE,8.1,-,N/A,,Clear,50,2014-04-22 02:35:00
8:55 PM,42.8,30.2,61,30.11,10.0,ENE,5.8,-,N/A,,Clear,60,2014-04-22 02:55:00
9:15 PM,39.2,28.4,65,30.11,10.0,SSE,3.5,-,N/A,,Clear,160,2014-04-22 03:15:00
9:35 PM,37.4,26.6,65,30.11,10.0,Calm,Calm,-,N/A,,Clear,0,2014-04-22 03:35:00
9:55 PM,35.6,28.4,75,30.12,10.0,SSE,3.5,-,N/A,,Clear,150,2014-04-22 03:55:00
10:15 PM,39.2,28.4,65,30.11,10.0,Calm,Calm,-,N/A,,Clear,0,2014-04-22 04:15:00
10:35 PM,39.2,28.4,65,30.10,10.0,Calm,Calm,-,N/A,,Clear,0,2014-04-22 04:35:00
10:55 PM,39.2,28.4,65,30.10,10.0,Calm,Calm,-,N/A,,Clear,0,2014-04-22 04:55:00
11:15 PM,37.4,26.6,65,30.10,10.0,Calm,Calm,-,N/A,,Clear,0,2014-04-22 05:15:00
11:35 PM,37.4,28.4,70,30.10,10.0,Calm,Calm,-,N/A,,Clear,0,2014-04-22 05:35:00
11:55 PM,33.8,28.4,81,30.10,10.0,Calm,Calm,-,N/A,,Clear,0,2014-04-22 05:55:00